パンスターズ彗星

P/2017 S9 ( PanSTARRS )

English version
Home page
Updated on October 30, 2017

---------------------------------------------------------------------

・ プロフィール

発見日 2017年9月30日
発見光度 22.0等
発見者 Pan-STARRS 1 telescope (Haleakala)

・ 軌道要素

Epoch 2017 July 26.0 TT = JDT 2457960.5
T 2017 July 23.55681 TT                                 MPCW
q   2.1950597            (2000.0)            P               Q
n   0.17577822     Peri.  237.89636     +0.89849554     -0.41744020
a   3.1561624      Node   146.21357     +0.43751837     +0.87680456
e   0.3045162      Incl.   14.13769     -0.03582513     +0.23865759
P   5.61
From 39 observations 2017 Sept. 19-Oct. 22, mean residual 0".4.

・ 光度変化

        m1 = 16.5 + 5 logΔ + 10.0 log r

---------------------------------------------------------------------

軌道要素はM.P.E.C. 2017-U237に掲載されたものです。
光度グラフはComet for Windowsで作成したものです。

---------------------------------------------------------------------

Copyright(C) Seiichi Yoshida (comet@aerith.net). All rights reserved.